Location: Unspecified
(0.0000°N, 0.0000°E)
Time: 20:27:03
(UTC+01:00)

PROBA 2 - Visible Passes

Search period start: 24 February 2017 00:00
Search period end: 06 March 2017 00:00
Orbit: 707 x 725 km, 98.3° (Epoch: 24 February)

Date Brightness Start Highest point End Pass type
(mag) Time Alt. Az. Time Alt. Az. Time Alt. Az.
24 Feb ? 20:01:43 10° NNW 20:05:44 26° WNW 20:09:45 10° SW visible
25 Feb ? 06:47:09 10° SE 06:51:24 32° ENE 06:55:38 10° NNE visible
26 Feb ? 19:57:23 10° NNW 20:01:34 29° WNW 20:05:45 10° SW visible
27 Feb ? 06:43:08 10° SE 06:47:14 28° ENE 06:51:19 10° NNE visible
28 Feb ? 19:53:03 10° NNW 19:57:24 33° WNW 20:01:44 10° SW visible
01 Mar ? 06:39:08 10° SE 06:43:04 25° ENE 06:46:58 10° NNE visible
02 Mar ? 19:48:46 10° N 19:53:14 37° WNW 19:57:42 10° SW visible
03 Mar ? 06:35:11 10° SE 06:38:53 22° ENE 06:42:35 10° NNE visible
04 Mar ? 19:44:29 10° N 19:49:04 42° WNW 19:53:38 10° SSW visible
05 Mar ? 06:31:15 10° SE 06:34:43 20° ENE 06:38:10 10° NNE visible
05 Mar ? 20:35:12 10° WNW 20:35:49 10° WNW 20:36:26 10° W visible
